EDT,Max TemperatureF,Mean TemperatureF,Min TemperatureF,Max Dew PointF,MeanDew PointF,Min DewpointF,Max Humidity, Mean Humidity, Min Humidity, Max Sea Level PressureIn, Mean Sea Level PressureIn, Min Sea Level PressureIn, Max VisibilityMiles, Mean VisibilityMiles, Min VisibilityMiles, Max Wind SpeedMPH, Mean Wind SpeedMPH, Max Gust SpeedMPH,PrecipitationIn, CloudCover, Events, WindDirDegrees
2013-5-1,79,59,38,43,39,33,93,57,21,30.46,30.40,30.36,10,10,5,14,1,18,0.00,0,,192
2013-5-2,82,61,39,42,40,37,92,58,24,30.47,30.40,30.33,10,10,6,7,2,9,T,3,,26
2013-5-3,71,58,44,41,35,26,71,49,27,30.53,30.44,30.35,10,10,10,8,4,,0.00,0,,189
2013-5-4,78,58,37,43,39,31,93,56,18,30.38,30.27,30.19,10,10,10,9,2,14,0.00,0,,131
2013-5-5,79,60,41,38,35,31,76,48,19,30.28,30.21,30.13,10,10,10,10,2,15,0.00,0,,188
2013-5-6,80,60,39,38,34,25,82,49,15,30.23,30.15,30.06,10,10,10,13,3,16,0.00,0,,184
2013-5-7,82,60,38,42,37,27,85,50,15,30.16,30.11,30.04,10,10,10,12,1,14,0.00,0,,190
2013-5-8,79,60,40,56,49,39,89,61,32,30.19,30.12,30.06,10,10,7,21,5,28,0.06,4,Rain,176
2013-5-9,74,64,53,58,55,49,93,69,44,30.04,29.96,29.87,10,9,1,16,3,24,T,5,,192
2013-5-10,74,63,52,59,54,50,100,72,44,29.99,29.93,29.83,10,10,5,9,2,15,0.01,6,Rain,2
2013-5-11,70,60,49,60,56,46,100,82,63,29.82,29.71,29.62,10,7,2,15,3,21,0.38,7,Rain,203
2013-5-12,61,51,40,49,39,24,100,66,32,29.77,29.69,29.62,10,10,10,15,4,22,T,6,Rain,242
2013-5-13,50,43,36,35,27,24,92,66,39,30.07,29.90,29.76,10,10,10,17,5,28,0.02,7,Rain,229
2013-5-14,55,43,30,35,28,22,100,63,26,30.13,30.07,30.01,10,7,0,15,3,24,T,3,Fog,356
2013-5-15,65,45,25,47,35,24,92,60,28,30.06,29.83,29.62,10,10,8,18,5,31,0.05,4,Rain,177
2013-5-16,73,59,44,47,40,31,93,58,22,29.91,29.70,29.61,10,9,5,21,8,33,0.00,4,,273
2013-5-17,65,55,44,41,38,35,82,59,36,30.25,30.09,29.92,10,10,10,17,5,23,T,6,Rain,333
2013-5-18,72,53,34,43,37,29,100,61,22,30.34,30.28,30.24,10,9,2,10,1,13,0.00,2,,180
2013-5-19,70,56,41,56,47,39,93,69,44,30.32,30.25,30.14,10,10,10,13,3,17,0.12,4,Rain,193
2013-5-20,70,61,52,59,55,50,100,84,68,30.10,30.02,29.99,10,6,0,6,1,,0.09,7,Fog-Rain,14
2013-5-21,71,61,51,61,55,50,100,83,66,30.02,29.94,29.86,10,6,0,18,4,24,0.77,7,Fog-Rain-Thunderstorm,24
2013-5-22,80,67,53,67,61,51,100,79,58,29.89,29.83,29.78,10,8,1,13,3,18,0.64,7,Rain-Thunderstorm,194
2013-5-23,78,69,60,64,61,58,97,76,54,29.80,29.77,29.71,10,7,1,20,4,25,0.88,7,Rain-Thunderstorm,182
2013-5-24,60,52,44,59,48,41,97,92,86,30.03,29.86,29.72,10,7,2,17,9,28,0.45,8,Rain,348
2013-5-25,45,41,37,43,38,34,92,87,82,30.03,29.97,29.91,10,7,2,17,10,26,0.98,8,Rain,354
2013-5-26,49,42,35,41,38,35,92,84,76,30.10,29.96,29.85,10,9,5,20,7,28,0.20,8,Rain,339
2013-5-27,65,50,34,41,36,32,100,65,30,30.21,30.14,30.07,10,7,0,18,4,26,0.00,2,Fog,334
2013-5-28,73,54,34,48,38,32,100,63,26,30.27,30.21,30.13,10,8,0,9,2,17,0.00,2,Fog,171
2013-5-29,64,59,54,59,54,44,100,81,62,30.12,30.04,29.95,10,8,2,9,2,14,0.32,7,Rain,184
2013-5-30,85,71,56,64,59,55,100,72,44,30.08,30.05,29.99,10,8,2,17,4,24,0.00,3,,319
2013-5-31,90,73,56,65,59,55,100,70,40,30.09,30.03,29.91,10,6,0,12,3,17,0.01,4,Fog,204